Temperature
18 18 18 18 18 18 18 18 18 18 18 18 18 18 18 18 18 18 18 18 18 18 18 18 18 18 18 18 18 18 18 18 18 18 18 18 18 18 18 18 18 18 18
18 18 18 18 18 18 18 18 18 18 18 18 18 18 18 18 18 18 18 18 18 18 18 18 18 18 18 18 18 18 18 18 18 18 18 18 18 18 18 18 18 18 18
18 18 18 18 18 18 18 18 18 18 18 18 18 18 18 18 18 18 17 17 17 17 17 17 18 18 18 18 18 18 18 18 18 18 18 18 18 18 18 18 18 18 18
18 18 18 18 18 18 18 17 17 17 17 17 17 17 17 17 17 17 17 17 17 17 17 17 17 17 18 18 18 18 18 18 18 18 17 17 18 18 18 18 18 18 18
18 18 18 18 18 18 17 17 17 17 17 17 17 17 17 17 17 17 17 17 17 17 17 17 17 17 17 17 18 18 18 17 17 17 17 18 18 18 18 18 18 18 18
18 18 18 18 18 18 17 17 17 17 17 17 17 17 17 17 17 17 17 17 17 17 17 17 17 17 17 17 17 17 17 17 17 17 17 17 18 18 18 18 18 18 18
18 18 18 18 18 18 17 17 17 17 17 17 17 17 16 17 17 17 17 17 17 17 17 17 17 17 17 17 17 17 17 17 17 17 17 17 17 18 18 18 18 18 18
18 18 18 18 18 17 17 17 17 17 17 17 17 17 17 17 17 17 17 17 17 17 17 17 17 17 17 17 17 17 17 17 17 17 17 17 17 17 18 18 18 18 18
18 18 18 18 17 17 17 17 17 17 17 17 17 17 17 17 17 17 16 16 16 16 16 17 17 17 17 17 17 17 17 17 17 17 17 17 17 17 17 17 17 17 18
18 18 18 18 17 17 17 17 17 17 17 17 17 17 17 17 17 16 16 16 16 16 16 17 17 17 17 17 17 17 17 17 17 17 17 17 17 17 17 17 17 17 17
18 18 18 18 17 17 17 17 17 17 17 17 17 17 17 16 16 16 16 16 16 16 16 17 17 17 17 17 17 17 17 17 17 17 17 17 17 17 17 17 17 17 17
18 18 18 18 18 17 17 17 17 17 17 17 17 17 17 17 17 17 17 17 16 16 16 17 17 17 17 17 17 17 17 17 17 17 17 17 17 17 17 17 17 17 17
18 18 18 18 18 18 17 17 17 17 17 17 17 17 17 17 17 17 17 17 16 16 16 17 17 17 17 17 17 17 17 17 17 17 17 17 17 17 17 17 17 17 17
18 18 18 18 18 18 18 17 17 17 17 17 17 17 17 17 17 17 17 17 16 16 16 17 17 17 17 17 17 17 17 17 17 17 17 17 17 17 17 17 17 17 17
18 18 18 18 18 18 18 18 17 17 17 17 17 17 17 17 17 17 17 17 17 17 17 17 17 17 17 17 17 17 17 17 17 16 16 16 16 17 17 17 17 17 17
18 18 18 18 18 18 18 18 17 17 17 17 17 17 17 17 17 17 17 17 17 17 17 17 17 17 17 17 17 17 17 17 16 16 16 16 16 16 16 16 16 16 16
18 18 18 18 18 18 18 18 17 17 17 17 17 17 17 17 17 17 17 17 17 17 17 17 17 17 16 16 16 16 16 16 16 16 16 16 16 16 16 16 16 16 16
18 18 18 18 18 17 17 17 17 17 17 17 17 17 17 17 17 17 17 16 17 16 16 16 16 16 16 16 16 16 16 16 16 16 16 16 16 16 16 16 16 16 16
18 18 18 17 17 17 17 17 17 17 17 17 17 17 17 17 17 16 16 16 16 16 16 16 16 16 16 16 16 16 16 16 16 16 16 16 16 16 16 15 16 16 16
18 18 18 17 17 17 17 17 17 17 17 16 16 16 16 16 16 16 16 16 16 16 16 16 16 16 16 16 16 16 16 16 16 16 16 16 15 15 15 15 15 15 15
18 18 18 17 17 17 17 17 17 16 16 16 16 16 16 16 16 16 16 16 16 16 16 16 16 16 16 16 16 16 16 16 16 16 16 15 15 15 15 15 15 15 15
18 18 18 17 17 17 17 16 16 16 16 16 16 16 16 16 16 16 16 16 16 16 16 16 16 16 16 16 16 16 16 16 16 15 15 15 15 15 15 15 15 15 15
18 18 18 17 17 17 17 17 16 16 16 16 16 16 16 16 16 16 16 16 15 15 15 15 15 15 16 16 16 16 16 15 15 15 15 15 15 15 15 15 15 14 14
18 18 18 17 17 17 17 17 16 16 16 16 16 16 16 16 15 15 15 15 15 15 15 15 15 15 15 16 16 16 16 16 16 15 15 15 15 15 14 14 14 14 14
18 18 18 17 17 17 17 17 16 16 16 16 16 16 16 16 15 15 15 15 15 15 15 15 15 15 15 15 16 16 16 16 16 15 15 15 15 14 14 14 14 14 14
18 18 18 17 17 17 17 17 16 16 16 16 16 16 16 15 15 15 15 15 15 15 15 15 15 15 15 15 15 15 15 15 15 15 15 15 15 14 14 14 14 14 14
Wind_Speed
9 11 12 12 13 13 13 13 13 13 13 13 12 13 13 13 13 13 13 12 12 12 12 11 11 11 11 10 10 10 9 8 8 8 9 10 10 11 10 10 10 10 11
12 13 13 13 13 13 13 13 13 13 13 13 12 12 12 12 12 12 12 12 12 12 11 11 10 10 10 10 9 9 7 6 6 6 7 9 10 11 11 12 12 10 11
14 14 14 14 14 14 13 13 13 13 13 13 13 12 11 11 11 11 11 11 11 11 11 10 10 10 10 9 9 8 6 4 4 3 3 6 9 10 10 11 10 10 10
13 14 14 14 14 13 13 13 14 13 13 13 12 11 11 11 11 11 10 10 10 10 10 9 9 9 9 8 8 7 5 4 5 5 4 7 9 10 10 10 10 9 9
13 15 14 14 14 13 13 13 13 12 12 12 12 11 10 10 10 10 10 10 10 9 9 9 8 9 8 8 7 6 5 5 6 5 7 11 11 10 10 9 9 8 8
13 14 14 13 13 13 13 13 13 12 12 12 11 10 9 9 9 10 10 9 9 9 9 9 8 8 8 7 6 5 5 6 6 5 8 10 9 9 9 8 8 7 7
13 14 14 13 12 13 13 13 12 11 11 11 10 10 9 9 9 9 9 9 9 9 9 9 8 7 7 6 5 4 5 7 2 5 9 9 9 9 8 7 7 7 6
13 13 13 13 13 13 13 12 12 11 11 10 10 9 8 8 8 8 8 8 8 8 8 8 7 6 6 4 3 4 5 7 3 5 9 9 9 8 7 6 6 6 6
12 12 12 13 12 13 13 12 11 11 10 9 8 6 6 6 8 8 8 7 7 7 7 6 6 5 4 3 2 3 5 6 4 3 7 8 8 7 6 6 5 5 5
9 9 10 12 13 12 12 12 11 10 8 8 7 5 5 6 7 7 8 7 7 6 5 4 4 3 3 1 1 3 5 5 2 5 8 8 8 7 6 6 5 5 4
8 7 7 8 9 12 12 12 11 10 8 8 7 7 6 6 7 7 9 8 6 5 4 3 3 3 3 3 3 4 5 2 4 8 9 9 8 8 7 6 5 5 4
6 6 6 6 6 8 8 10 9 8 8 7 6 5 4 4 7 9 9 8 6 5 4 4 4 4 5 5 5 5 3 1 6 8 9 9 8 8 7 6 5 4 4
6 5 5 5 6 7 5 6 5 5 5 4 4 5 5 5 6 8 7 6 6 5 4 4 5 5 4 3 3 2 2 6 8 9 9 9 8 8 7 7 5 4 3
7 5 4 4 4 6 6 4 4 3 2 3 2 6 5 3 3 4 4 4 4 3 2 2 2 1 1 3 2 3 5 6 8 10 9 9 8 8 8 7 6 5 4
6 4 4 4 4 5 4 2 4 3 2 4 2 4 6 3 2 2 2 2 2 3 1 0 1 3 4 4 5 6 5 7 7 9 9 9 9 9 8 9 8 7 6
6 6 4 4 4 5 4 3 3 4 3 5 3 4 7 5 2 2 3 2 2 3 2 2 3 3 3 3 4 4 5 6 6 8 9 9 9 9 9 9 9 9 8
7 6 4 4 4 5 4 3 4 4 5 4 3 5 7 5 4 4 2 2 2 3 4 4 4 3 2 2 3 3 4 5 5 6 8 8 7 8 8 9 10 9 8
7 7 5 5 5 5 4 4 3 4 4 4 4 5 5 6 6 4 2 2 4 6 4 3 4 3 3 3 3 3 3 4 4 5 5 7 7 7 8 10 11 10 9
8 8 6 5 6 5 4 3 4 4 4 4 6 5 5 6 6 6 2 2 6 4 3 3 4 3 3 3 2 3 3 3 3 5 4 6 7 8 8 8 10 12 11
8 8 7 6 6 5 3 3 3 3 3 5 5 5 6 6 7 5 2 5 6 4 3 3 3 3 2 2 4 4 4 3 4 4 5 7 8 8 8 8 8 10 12
7 8 8 7 6 5 3 3 2 2 2 3 3 6 6 7 6 5 3 4 4 4 3 4 3 3 2 3 3 3 3 4 4 3 4 4 6 8 8 9 8 8 9
7 7 7 7 6 6 3 3 3 2 3 3 3 4 4 5 5 4 4 3 3 3 4 4 3 2 2 2 2 2 2 3 4 3 4 4 4 7 8 10 10 10 10
7 7 8 7 7 7 5 3 3 3 2 3 3 3 4 6 6 5 4 3 2 3 3 2 3 2 2 2 3 2 2 1 0 3 4 4 4 4 5 8 11 11 12
7 6 7 7 7 6 6 4 4 4 3 3 3 2 2 5 6 5 5 4 3 3 3 2 3 2 2 2 2 2 2 2 2 1 2 4 5 6 5 6 9 11 12
8 6 6 6 6 6 6 5 4 3 3 3 3 4 3 3 4 5 5 4 3 3 3 4 5 4 3 2 2 2 3 2 2 2 1 1 3 3 4 5 7 8 10
7 6 6 6 5 5 6 5 5 5 4 4 4 3 3 3 2 3 4 4 3 3 3 3 3 4 3 3 3 3 2 2 2 2 2 2 2 2 4 4 4 5 7
Wind_Direction
109 108 107 100 97 95 94 93 92 94 93 90 87 86 84 82 82 81 81 80 80 81 81 80 80 78 76 75 76 76 75 72 73 75 76 76 75 70 64 64 71 72 75
115 111 106 100 98 95 94 95 95 95 94 92 89 86 86 84 84 83 81 79 78 78 78 79 79 79 78 77 77 77 74 69 67 77 86 84 79 72 67 66 70 73 73
113 112 104 100 98 96 95 96 99 99 97 94 90 86 86 85 84 83 81 79 78 78 77 77 78 78 76 75 73 72 65 52 36 29 70 99 90 77 73 72 72 73 72
107 108 104 103 101 100 100 100 100 100 99 96 92 87 85 85 84 81 81 79 77 76 75 75 76 76 74 74 72 66 51 25 13 6 50 81 83 80 75 74 73 72 70
102 103 106 106 104 104 104 102 101 100 100 97 94 90 86 84 85 82 80 78 77 75 73 73 74 74 74 75 70 58 37 10 0 18 66 80 81 82 76 70 69 69 69
103 104 108 107 107 106 106 106 103 100 99 96 94 92 88 85 85 85 81 78 77 75 74 73 75 73 73 76 67 49 22 360 359 48 74 84 86 84 78 71 68 68 67
106 108 110 109 113 112 110 109 105 103 99 96 94 92 91 89 90 87 85 81 78 76 74 72 74 74 76 72 57 34 4 344 30 80 86 85 88 87 83 76 70 69 71
109 110 113 112 120 121 115 111 108 106 102 100 98 100 99 99 99 95 91 87 83 81 77 73 75 78 75 68 43 10 353 348 42 77 94 92 93 88 82 76 71 66 68
108 115 121 126 120 120 120 116 114 113 112 110 109 114 119 118 114 109 100 94 90 87 84 79 81 83 81 71 19 341 339 346 356 56 92 94 90 86 80 72 66 64 67
110 116 125 128 129 128 123 123 124 125 129 135 143 157 156 147 138 127 118 108 102 99 98 98 102 109 117 122 288 307 315 322 14 65 89 95 88 84 75 66 63 63 66
105 110 119 124 128 129 132 134 142 144 152 162 178 189 191 183 153 131 117 123 123 126 127 140 154 172 182 213 249 273 293 286 88 75 78 92 87 79 69 62 58 59 64
114 115 114 122 121 122 127 140 147 145 160 173 175 178 189 128 115 121 132 140 151 160 166 193 212 219 221 212 222 243 275 79 86 85 87 94 86 75 65 58 53 54 65
117 107 120 125 133 129 120 130 128 134 153 155 141 123 102 102 125 132 148 158 174 184 193 197 225 234 225 186 182 188 78 64 84 84 90 89 82 72 60 51 50 53 67
107 106 109 107 110 117 113 123 126 121 124 100 94 107 97 83 79 98 120 148 168 168 150 186 220 253 40 72 75 70 75 70 79 91 93 90 80 67 56 49 48 55 71
118 115 98 89 89 94 94 111 105 89 89 94 51 85 91 80 74 77 95 82 87 112 124 46 53 41 47 44 42 48 61 83 85 102 100 89 77 66 60 54 52 54 60
135 122 104 96 88 96 105 93 88 100 92 83 48 66 82 82 83 65 69 69 52 64 62 61 73 58 58 49 45 48 49 75 88 106 113 96 81 69 63 61 58 57 58
133 121 117 108 91 81 75 72 87 86 87 83 47 45 71 71 65 67 60 56 49 60 59 50 56 62 78 69 59 56 62 64 76 92 111 122 108 84 72 67 61 60 61
133 127 123 120 101 81 68 59 70 78 77 86 68 41 53 66 69 64 44 28 56 57 55 58 54 46 57 61 56 55 64 70 72 82 97 114 117 105 87 75 65 62 60
138 135 137 123 109 95 87 77 64 74 64 67 67 42 35 52 66 74 42 21 57 51 42 58 59 52 59 63 81 69 58 53 48 61 68 83 87 96 103 89 72 64 62
146 144 139 123 119 110 100 92 74 64 61 62 65 51 38 42 57 67 62 56 53 52 45 57 67 55 49 52 71 71 61 58 50 41 48 61 69 81 89 95 89 73 66
151 143 139 140 132 124 112 103 96 85 75 62 61 58 42 44 43 52 53 60 53 54 50 66 60 56 43 60 67 52 50 51 62 55 48 56 57 62 72 80 81 84 76
152 144 146 145 142 133 128 130 127 118 101 88 58 54 43 51 51 56 69 78 82 71 48 50 55 42 34 62 80 79 53 23 21 62 63 64 59 56 55 62 67 70 74
157 158 156 155 147 141 141 124 111 88 82 93 85 57 33 50 49 37 56 69 76 94 81 57 71 66 22 22 59 78 111 135 22 30 55 70 64 55 53 58 61 64 69
161 156 155 158 147 141 137 133 138 132 123 115 114 109 77 60 55 39 47 58 64 74 75 48 57 58 56 22 13 23 45 99 117 77 31 63 66 63 54 54 56 60 66
158 156 153 151 147 143 139 139 140 120 121 112 109 104 97 78 67 54 47 55 60 69 73 62 51 37 46 44 34 25 20 12 32 106 110 82 67 69 74 67 68 64 65
149 151 144 140 138 137 140 149 145 134 126 115 104 102 101 92 68 67 70 66 63 69 71 69 73 62 48 43 32 39 47 32 7 49 96 120 110 88 79 70 68 69 74
Height
1522 1522 1524 1525 1526 1527 1529 1530 1531 1532 1533 1534 1535 1536 1537 1538 1539 1539 1540 1541 1542 1542 1543 1544 1544 1545 1546 1546 1547 1548 1548 1549 1550 1550 1550 1551 1551 1551 1552 1552 1552 1553 1553
1522 1523 1525 1526 1527 1528 1530 1531 1532 1533 1534 1535 1536 1537 1538 1539 1540 1541 1541 1542 1543 1543 1544 1545 1546 1546 1547 1547 1548 1549 1549 1550 1551 1551 1552 1552 1552 1553 1553 1553 1554 1554 1554
1522 1524 1525 1527 1528 1529 1531 1532 1533 1534 1535 1536 1538 1539 1540 1540 1541 1542 1542 1543 1544 1545 1545 1546 1547 1547 1548 1548 1549 1550 1550 1551 1552 1552 1553 1553 1554 1554 1554 1554 1555 1555 1555
1524 1525 1527 1528 1530 1531 1532 1533 1534 1536 1537 1538 1539 1540 1541 1542 1542 1543 1543 1544 1545 1546 1546 1547 1547 1548 1549 1549 1550 1551 1551 1552 1553 1553 1554 1554 1555 1555 1555 1555 1555 1556 1556
1525 1526 1528 1529 1531 1532 1533 1534 1536 1537 1538 1539 1540 1541 1542 1543 1543 1544 1544 1545 1546 1546 1547 1548 1548 1549 1549 1550 1551 1551 1552 1553 1553 1554 1555 1555 1556 1556 1556 1556 1556 1557 1557
1526 1528 1529 1531 1532 1533 1535 1536 1537 1538 1540 1541 1542 1542 1543 1544 1544 1545 1545 1546 1547 1547 1548 1548 1549 1550 1550 1551 1551 1552 1553 1554 1554 1555 1556 1556 1556 1556 1556 1557 1557 1557 1558
1528 1529 1531 1532 1533 1534 1536 1537 1538 1540 1541 1542 1543 1543 1544 1545 1545 1546 1546 1547 1547 1548 1548 1549 1550 1550 1551 1551 1552 1553 1554 1554 1555 1556 1556 1556 1557 1557 1557 1557 1557 1558 1558
1529 1531 1532 1533 1534 1536 1537 1539 1540 1541 1542 1543 1544 1545 1545 1546 1546 1547 1547 1548 1548 1549 1549 1550 1551 1551 1552 1552 1553 1553 1554 1555 1556 1557 1557 1557 1557 1557 1557 1557 1558 1558 1558
1531 1532 1534 1535 1536 1538 1539 1541 1542 1543 1544 1544 1545 1546 1547 1547 1548 1548 1548 1549 1549 1550 1550 1551 1552 1552 1553 1553 1554 1554 1555 1555 1557 1557 1557 1557 1558 1558 1558 1557 1557 1558 1558
1534 1535 1536 1537 1538 1539 1541 1542 1543 1544 1545 1546 1547 1547 1548 1549 1549 1550 1550 1550 1551 1551 1552 1552 1553 1553 1554 1554 1555 1556 1556 1557 1557 1558 1557 1558 1558 1558 1558 1557 1557 1557 1557
1536 1537 1539 1540 1541 1542 1543 1544 1545 1546 1547 1547 1548 1549 1550 1550 1551 1551 1552 1552 1552 1553 1553 1553 1554 1555 1555 1556 1556 1557 1557 1558 1558 1558 1558 1558 1558 1558 1557 1557 1557 1557 1556
1537 1539 1540 1542 1543 1544 1546 1546 1547 1548 1549 1549 1550 1551 1552 1553 1553 1553 1554 1554 1554 1554 1554 1555 1555 1556 1556 1557 1558 1558 1558 1559 1559 1559 1559 1559 1558 1558 1557 1557 1556 1556 1556
1539 1541 1542 1544 1545 1546 1547 1548 1549 1550 1551 1552 1552 1553 1554 1554 1554 1555 1555 1555 1555 1555 1556 1556 1556 1557 1557 1558 1559 1559 1559 1559 1559 1559 1559 1559 1559 1558 1557 1556 1556 1555 1555
1540 1542 1544 1545 1546 1548 1549 1550 1551 1552 1553 1553 1554 1555 1555 1556 1556 1556 1556 1556 1557 1557 1557 1557 1557 1558 1558 1559 1559 1560 1560 1560 1560 1560 1560 1560 1559 1558 1557 1556 1555 1555 1554
1542 1544 1545 1546 1548 1549 1550 1552 1553 1553 1554 1555 1555 1556 1556 1556 1557 1557 1557 1557 1558 1558 1558 1558 1559 1559 1559 1559 1560 1561 1561 1560 1560 1561 1561 1560 1560 1559 1558 1557 1556 1555 1555
1543 1544 1546 1547 1549 1550 1551 1552 1554 1555 1555 1556 1556 1557 1557 1558 1558 1558 1558 1558 1559 1559 1559 1560 1559 1560 1560 1560 1561 1561 1562 1562 1562 1562 1561 1561 1560 1559 1558 1557 1556 1556 1555
1543 1545 1547 1548 1550 1551 1552 1553 1555 1555 1556 1557 1557 1558 1558 1558 1558 1558 1559 1559 1560 1560 1560 1560 1560 1561 1561 1561 1562 1562 1563 1563 1563 1563 1562 1561 1561 1560 1560 1558 1557 1556 1555
1544 1545 1548 1549 1550 1551 1553 1554 1555 1556 1557 1558 1558 1558 1559 1559 1559 1559 1559 1560 1560 1560 1561 1561 1561 1561 1562 1562 1563 1563 1564 1564 1564 1564 1564 1563 1562 1561 1560 1559 1558 1557 1555
1544 1546 1548 1550 1551 1552 1554 1555 1556 1557 1558 1558 1558 1559 1559 1560 1560 1560 1560 1561 1561 1561 1561 1562 1562 1562 1563 1563 1564 1564 1565 1565 1565 1565 1565 1564 1563 1562 1561 1560 1559 1557 1554
1544 1546 1548 1550 1551 1553 1554 1556 1557 1557 1558 1559 1559 1560 1560 1560 1560 1561 1561 1561 1561 1562 1562 1562 1563 1563 1564 1564 1565 1565 1566 1566 1566 1566 1566 1565 1565 1564 1563 1561 1560 1558 1556
1544 1546 1548 1550 1551 1553 1554 1556 1557 1558 1559 1559 1560 1560 1561 1561 1561 1562 1562 1562 1562 1562 1563 1563 1564 1565 1565 1565 1566 1566 1567 1567 1567 1567 1567 1566 1566 1565 1564 1563 1561 1560 1558
1544 1546 1547 1549 1551 1553 1554 1556 1557 1558 1559 1559 1560 1561 1561 1562 1562 1562 1563 1563 1563 1563 1564 1564 1565 1565 1566 1566 1567 1567 1568 1569 1568 1568 1568 1567 1567 1566 1565 1565 1564 1562 1561
1543 1545 1547 1549 1551 1552 1554 1556 1557 1559 1560 1560 1561 1561 1562 1562 1562 1563 1563 1564 1564 1564 1565 1565 1566 1566 1566 1567 1567 1568 1568 1568 1569 1570 1569 1568 1568 1567 1567 1566 1565 1564 1563
1542 1544 1546 1549 1550 1552 1553 1555 1557 1558 1559 1560 1561 1562 1562 1563 1563 1563 1564 1564 1565 1565 1565 1566 1566 1567 1567 1567 1568 1568 1568 1568 1569 1569 1570 1569 1569 1568 1568 1567 1566 1566 1564
1540 1543 1545 1548 1550 1551 1553 1555 1557 1558 1559 1560 1561 1562 1563 1563 1564 1564 1564 1565 1565 1566 1566 1566 1567 1567 1567 1568 1568 1568 1568 1569 1569 1569 1569 1570 1569 1569 1569 1568 1567 1566 1565
1539 1542 1544 1546 1549 1551 1552 1554 1556 1557 1559 1560 1561 1562 1563 1564 1565 1565 1565 1565 1566 1566 1567 1567 1567 1567 1568 1568 1568 1568 1569 1569 1569 1569 1569 1569 1569 1570 1569 1568 1568 1567 1566